Time,TemperatureF,DewpointF,PressureIn,WindDirection,WindDirectionDegrees,WindSpeedMPH,WindSpeedGustMPH,Humidity,HourlyPrecipIn,Conditions,Clouds,dailyrainin,SoftwareType,DateUTC
2013-08-05 00:00:00,67.8,55.6,30.33,ENE,67,0.0,6.7,65,-99.99,,,0.00,VWS V14.01,2013-08-05 04:00:00,
2013-08-05 00:30:00,67.3,55.1,30.33,ENE,69,0.0,7.4,65,-99.99,,,0.00,VWS V14.01,2013-08-05 04:30:00,
2013-08-05 01:00:00,66.7,55.0,30.33,ENE,69,0.0,0.0,66,-99.99,,,0.00,VWS V14.01,2013-08-05 05:00:00,
2013-08-05 01:29:00,66.2,54.9,30.30,ENE,63,0.0,3.6,67,-99.99,,,0.00,VWS V14.01,2013-08-05 05:29:00,
2013-08-05 02:00:00,66.0,55.2,30.30,ENE,70,0.0,3.6,68,-99.99,,,0.00,VWS V14.01,2013-08-05 06:00:00,
2013-08-05 02:30:00,65.7,54.8,30.30,ENE,70,0.0,0.0,68,-99.99,,,0.00,VWS V14.01,2013-08-05 06:30:00,
2013-08-05 03:00:00,65.3,54.9,30.30,ENE,66,0.0,4.9,69,-99.99,,,0.00,VWS V14.01,2013-08-05 07:00:00,
2013-08-05 03:30:00,65.1,55.5,30.27,ENE,71,0.0,0.0,71,-99.99,,,0.00,VWS V14.01,2013-08-05 07:30:00,
2013-08-05 04:00:00,64.6,55.4,30.27,ENE,66,0.0,2.7,72,-99.99,,,0.00,VWS V14.01,2013-08-05 08:00:00,
2013-08-05 04:29:00,64.2,55.4,30.27,ENE,58,0.0,0.0,73,-99.99,,,0.00,VWS V14.01,2013-08-05 08:29:00,
2013-08-05 05:00:00,63.9,55.8,30.27,ENE,66,0.0,0.0,75,-99.99,,,0.00,VWS V14.01,2013-08-05 09:00:00,
2013-08-05 05:30:00,63.1,55.5,30.27,ENE,66,0.0,0.0,76,-99.99,,,0.00,VWS V14.01,2013-08-05 09:30:00,
2013-08-05 06:00:00,62.2,55.7,30.27,ENE,66,0.0,0.0,79,-99.99,,,0.00,VWS V14.01,2013-08-05 10:00:00,
2013-08-05 06:59:00,62.6,57.0,30.30,NE,49,0.0,2.7,82,-99.99,,,0.00,VWS V14.01,2013-08-05 10:59:00,
2013-08-05 07:30:00,62.6,57.0,30.30,NE,52,0.0,0.0,82,-99.99,,,0.00,VWS V14.01,2013-08-05 11:30:00,
2013-08-05 08:00:00,63.1,57.9,30.30,ENE,58,0.0,4.9,83,-99.99,,,0.00,VWS V14.01,2013-08-05 12:00:00,
2013-08-05 08:59:00,64.8,59.5,30.30,ENE,72,0.0,0.0,83,-99.99,,,0.00,VWS V14.01,2013-08-05 12:59:00,
2013-08-05 09:29:00,66.0,60.0,30.33,ENE,72,0.0,4.5,81,-99.99,,,0.00,VWS V14.01,2013-08-05 13:29:00,
2013-08-05 09:59:00,67.5,60.0,30.30,ENE,69,0.0,4.5,77,-99.99,,,0.00,VWS V14.01,2013-08-05 13:59:00,
2013-08-05 10:29:00,69.1,59.3,30.30,ENE,76,0.0,5.8,71,-99.99,,,0.00,VWS V14.01,2013-08-05 14:29:00,
2013-08-05 10:59:00,71.4,59.9,30.30,NE,52,0.0,0.0,67,-99.99,,,0.00,VWS V14.01,2013-08-05 14:59:00,
2013-08-05 11:29:00,73.4,59.2,30.30,NE,40,0.0,5.4,61,-99.99,,,0.00,VWS V14.01,2013-08-05 15:29:00,
2013-08-05 12:00:00,75.6,59.8,30.30,ENE,70,0.0,2.7,58,-99.99,,,0.00,VWS V14.01,2013-08-05 16:00:00,
2013-08-05 12:30:00,77.4,59.4,30.30,East,101,0.0,0.0,54,-99.99,,,0.00,VWS V14.01,2013-08-05 16:30:00,
2013-08-05 13:00:00,78.3,52.7,30.30,East,85,0.0,0.0,41,-99.99,,,0.00,VWS V14.01,2013-08-05 17:00:00,
2013-08-05 14:00:00,81.5,55.5,30.30,SW,216,0.0,0.0,41,-99.99,,,0.00,VWS V14.01,2013-08-05 18:00:00,
2013-08-05 14:30:00,81.0,52.3,30.27,SW,218,0.0,0.0,37,-99.99,,,0.00,VWS V14.01,2013-08-05 18:30:00,
2013-08-05 15:00:00,83.3,54.3,30.27,SSW,211,0.0,0.0,37,-99.99,,,0.00,VWS V14.01,2013-08-05 19:00:00,
2013-08-05 15:30:00,84.6,56.9,30.27,SW,222,0.0,2.7,39,-99.99,,,0.00,VWS V14.01,2013-08-05 19:30:00,
2013-08-05 16:00:00,84.4,56.7,30.27,SSW,209,0.0,0.0,39,-99.99,,,0.00,VWS V14.01,2013-08-05 20:00:00,
2013-08-05 16:30:00,86.7,53.4,30.27,SSW,195,0.0,3.1,32,-99.99,,,0.00,VWS V14.01,2013-08-05 20:30:00,
2013-08-05 17:00:00,84.6,49.8,30.27,SW,227,0.0,3.1,30,-99.99,,,0.00,VWS V14.01,2013-08-05 21:00:00,
2013-08-05 18:00:00,84.4,56.7,30.27,SW,226,0.0,0.0,39,-99.99,,,0.00,VWS V14.01,2013-08-05 22:00:00,
2013-08-05 18:30:00,82.0,53.2,30.27,SW,223,0.0,0.0,37,-99.99,,,0.00,VWS V14.01,2013-08-05 22:30:00,
2013-08-05 19:00:00,76.6,55.5,30.27,SW,214,0.0,0.0,48,-99.99,,,0.00,VWS V14.01,2013-08-05 23:00:00,
2013-08-05 20:00:00,72.1,55.1,30.24,SSW,208,0.0,0.0,55,-99.99,,,0.00,VWS V14.01,2013-08-06 00:00:00,
2013-08-05 20:30:00,70.3,53.4,30.27,SW,215,0.0,0.0,55,-99.99,,,0.00,VWS V14.01,2013-08-06 00:30:00,
2013-08-05 21:00:00,69.1,52.7,30.27,SSW,205,0.0,0.0,56,-99.99,,,0.00,VWS V14.01,2013-08-06 01:00:00,
2013-08-05 21:30:00,68.2,53.3,30.24,SSW,204,0.0,0.0,59,-99.99,,,0.00,VWS V14.01,2013-08-06 01:30:00,
2013-08-05 22:30:00,67.3,53.4,30.24,SSW,201,0.0,0.0,61,-99.99,,,0.00,VWS V14.01,2013-08-06 02:30:00,
2013-08-05 23:00:00,67.5,54.0,30.24,SSW,201,0.0,0.0,62,-99.99,,,0.00,VWS V14.01,2013-08-06 03:00:00,
2013-08-05 23:30:00,69.1,53.7,30.24,SSE,149,0.0,0.0,58,-99.99,,,0.00,VWS V14.01,2013-08-06 03:30:00,